[[{"header":{"parameterUnit":"m.s-1","parameterCategory":1,"la1":30.2991,"la2":30.254,"lo1":-89.0895,"lo2":-89.0444,"dx":0.0017,"dy":0.0017,"nx":28,"ny":28,"refTime":"2023-01-07T03:00:00:Z","depth":0,"parameterNumber":2,"parameterNumberName":"U-component_of_WINDS"},"data":[0,0,0,0,0,0,0,0,0,0,0,0,0,0,0,0,0,0,0,0,0,0,0,0,0,0,0,0,0,0,0,0,0,0,0,0,0,0,0,0,0,0,0,0,0,0,0,0,0,0,0,0,0,0,0,0,0,0,-0.3037,-0.3037,0,-0.3009,-0.3009,-0.3008,-0.3017,-0.3017,-0.3018,-0.3018,-0.2991,-0.299,-0.2989,0,0,0,0,0,0,0,0,0,0,0,0,0,-0.3099,-0.3098,-0.3037,-0.3037,-0.3036,-0.3009,-0.3009,-0.3008,-0.3016,-0.3017,-0.3018,-0.3019,-0.2991,-0.299,-0.2988,0,0,0,0,0,0,0,0,0,0,0,0,0,-0.3072,-0.3098,-0.3037,-0.3037,-0.3037,-0.3009,-0.3009,-0.3008,-0.3016,-0.3017,-0.3018,-0.3019,-0.2992,-0.299,-0.2988,-0.2959,0,0,-0.2982,-0.2982,0,0,0,0,0,0,0,0,-0.3073,-0.307,-0.3037,-0.3037,-0.3037,-0.3017,-0.3021,-0.2992,-0.3016,-0.3024,-0.3018,-0.3019,-0.2999,-0.2997,-0.299,-0.2958,-0.2957,-0.2982,-0.2981,-0.298,-0.298,0,0,0,0,0,0,0,-0.3075,-0.3071,-0.3026,-0.3037,-0.3036,-0.3039,-0.3036,-0.3015,-0.3007,-0.3023,-0.3024,-0.3021,-0.2999,-0.2991,-0.2989,-0.2956,-0.2982,-0.2981,-0.2979,-0.2979,-0.2899,-0.2898,0,0,0,0,0,0,-0.3077,-0.3072,-0.3027,-0.3025,-0.3057,-0.3037,-0.3034,-0.3022,-0.3007,-0.3006,-0.302,-0.3021,-0.2994,-0.2991,-0.2988,-0.2952,-0.298,-0.2979,-0.2977,-0.29,-0.2899,-0.2898,0,0,0,0,0,0,-0.3078,-0.3073,-0.3028,-0.3049,-0.3043,-0.3035,-0.3022,-0.3021,-0.3014,-0.3005,-0.3003,-0.3013,-0.2995,-0.2991,-0.2966,-0.2951,-0.2978,-0.2976,-0.2901,-0.29,-0.2898,-0.288,0,0,0,0,0,0,-0.308,-0.3073,-0.3062,-0.3048,-0.3042,-0.3006,-0.3021,-0.302,-0.301,-0.3012,-0.2998,-0.2997,-0.2995,-0.2969,-0.2964,-0.2949,-0.2974,-0.2902,-0.2901,-0.2899,-0.2882,-0.2879,-0.2875,0,0,0,0,0,-0.3082,-0.3058,-0.3061,-0.3056,-0.3027,-0.3005,-0.3001,-0.2999,-0.3009,-0.2997,-0.2992,-0.2997,-0.2954,-0.2966,-0.2961,-0.2945,-0.2903,-0.2901,-0.2899,-0.2884,-0.2879,-0.2875,0,0,0,0,0,0,-0.3071,-0.3057,-0.306,-0.303,-0.3019,-0.3006,-0.2991,-0.2995,-0.2981,-0.2982,-0.2982,-0.2978,-0.2953,-0.2947,-0.2961,-0.2916,-0.293,-0.2927,-0.2921,-0.2916,-0.2913,-0.2914,-0.2973,0,0,0,0,0,-0.3065,-0.3047,-0.3036,-0.3011,-0.3005,-0.2999,-0.299,-0.2989,-0.2977,-0.2973,-0.2965,-0.2954,-0.2938,-0.2927,-0.2912,-0.2882,-0.2879,-0.2869,-0.2866,-0.2863,-0.2859,-0.2843,-0.2838,-0.2891,-0.2891,-0.2891,0,0,-0.3052,-0.3042,-0.3031,-0.3009,-0.3,-0.2982,-0.2995,-0.2976,-0.2962,-0.297,-0.2945,-0.294,-0.2927,-0.29,-0.2887,-0.2894,-0.2844,-0.286,-0.2858,-0.2856,-0.284,-0.2835,-0.283,-0.2889,-0.2889,-0.289,0,0,-0.3019,-0.3011,-0.2988,-0.2979,-0.2965,-0.2961,-0.2956,-0.2943,-0.2939,-0.2915,-0.292,-0.2905,-0.2877,-0.2868,-0.2859,-0.2824,-0.2828,-0.2819,-0.28,-0.2784,-0.278,-0.2776,-0.2762,-0.2757,-0.2816,-0.2816,-0.2816,0,-0.3005,-0.2978,-0.2977,-0.2956,-0.2946,-0.2952,-0.293,-0.2921,-0.2903,-0.2896,-0.2904,-0.2869,-0.2862,-0.2831,-0.2823,-0.2816,-0.281,-0.282,-0.2781,-0.2777,-0.2773,-0.276,-0.2755,-0.2815,-0.2815,-0.2815,-0.2815,0,-0.2961,-0.2942,-0.2926,-0.2907,-0.2896,-0.2875,-0.2871,-0.2859,-0.2861,-0.2856,-0.2831,-0.2822,-0.2805,-0.2798,-0.28,-0.2768,-0.2773,-0.2781,-0.2794,-0.2767,-0.2754,-0.2749,-0.2813,-0.2814,-0.2814,-0.2815,0,0,-0.2918,-0.29,-0.2894,-0.2885,-0.287,-0.2856,-0.2836,-0.2818,-0.2808,-0.2796,-0.2778,-0.2755,-0.2762,-0.2753,-0.2753,-0.2739,-0.271,-0.2749,-0.2748,-0.274,-0.2674,-0.2667,-0.2661,-0.2714,-0.2713,-0.2712,-0.2675,0,-0.2883,-0.2845,-0.2844,-0.2811,-0.2793,-0.2799,-0.2781,-0.277,-0.2766,-0.2751,-0.2747,-0.273,-0.2741,-0.2735,-0.2722,-0.2716,-0.2697,-0.272,-0.2697,-0.2696,-0.2698,-0.2655,-0.2647,-0.2612,-0.267,-0.2669,-0.2669,0,-0.2836,-0.2821,-0.2786,-0.2773,-0.2766,-0.2749,-0.2733,-0.2719,-0.2707,-0.2705,-0.2694,-0.2697,-0.2677,-0.2693,-0.2664,-0.268,-0.2671,-0.2667,-0.2666,-0.2662,-0.2679,-0.2648,-0.2601,-0.2595,-0.2661,-0.2662,-0.2662,0,-0.2807,-0.2778,-0.2753,-0.2746,-0.2731,-0.2719,-0.2713,-0.2702,-0.2691,-0.2678,-0.2671,-0.2656,-0.2647,-0.2635,-0.2634,-0.2646,-0.2605,-0.2621,-0.2602,-0.2602,-0.2591,-0.2592,-0.254,-0.2589,-0.2589,-0.2589,-0.2589,0,-0.2766,-0.2744,-0.2739,-0.2723,-0.2698,-0.2698,-0.2674,-0.2668,-0.2659,-0.2642,-0.2648,-0.2632,-0.2632,-0.2617,-0.2616,-0.2592,-0.2588,-0.2586,-0.2585,-0.2584,-0.2584,-0.2577,-0.2578,-0.2588,-0.2588,-0.2588,-0.2588,0,-0.2728,-0.2724,-0.2697,-0.2685,-0.2682,-0.2664,-0.2654,-0.2639,-0.2636,-0.2615,-0.261,-0.2605,-0.2587,-0.2585,-0.2564,-0.2564,-0.2534,-0.2538,-0.2538,-0.2538,-0.2518,-0.2519,-0.2458,-0.245,-0.2506,-0.2506,-0.2505,0,-0.2701,-0.2684,-0.267,-0.2659,-0.2652,-0.2634,-0.2623,-0.2623,-0.2612,-0.2597,-0.2584,-0.2566,-0.2552,-0.2523,-0.2518,-0.2502,-0.2504,-0.2484,-0.2501,-0.25,-0.2502,-0.2502,-0.2499,-0.248,-0.2479,-0.2479,-0.2478,0,-0.2654,-0.2653,-0.2637,-0.262,-0.2606,-0.2593,-0.2581,-0.2572,-0.2571,-0.2558,-0.2539,-0.2528,-0.2506,-0.2488,-0.2473,-0.2467,-0.2472,-0.2473,-0.2467,-0.2465,-0.2465,-0.2463,-0.2526,-0.2474,-0.2474,-0.2475,-0.2475,-0.2475,-0.2619,-0.2604,-0.2592,-0.2573,-0.2564,-0.2553,-0.2537,-0.2532,-0.2517,-0.2498,-0.25,-0.2479,-0.2468,-0.2448,-0.2441,-0.2425,-0.2431,-0.2424,-0.2421,-0.2419,-0.2416,-0.2469,-0.2422,-0.2422,-0.2422,-0.2423,-0.2423,0,-0.2571,-0.2563,-0.2547,-0.2529,-0.2514,-0.2521,-0.2508,-0.2495,-0.2476,-0.2466,-0.2451,-0.243,-0.2413,-0.2407,-0.239,-0.2378,-0.238,-0.2374,-0.2374,-0.2372,-0.2412,-0.2417,-0.2373,-0.2373,-0.2373,-0.2373,-0.2373,-0.2373,-0.2544,-0.2517,-0.2515,-0.2484,-0.2477,-0.2456,-0.2448,-0.2437,-0.2428,-0.2404,-0.2389,-0.2385,-0.2376,-0.2359,-0.2344,-0.2343,-0.2336,-0.2328,-0.2328,-0.2364,-0.2369,-0.2374,-0.2379,-0.2327,-0.2327,-0.2289,-0.2288,-0.2288]},{"header":{"parameterUnit":"m.s-1","parameterCategory":1,"la1":30.2991,"la2":30.254,"lo1":-89.0895,"lo2":-89.0444,"dx":0.0017,"dy":0.0017,"nx":28,"ny":28,"refTime":"2023-01-07T03:00:00:Z","depth":0,"parameterNumber":3,"parameterNumberName":"V-component_of_WINDS"},"data":[0,0,0,0,0,0,0,0,0,0,0,0,0,0,0,0,0,0,0,0,0,0,0,0,0,0,0,0,0,0,0,0,0,0,0,0,0,0,0,0,0,0,0,0,0,0,0,0,0,0,0,0,0,0,0,0,0,0,1.6657,1.6656,0,1.6635,1.6635,1.6634,1.6617,1.6617,1.6617,1.6617,1.6592,1.6592,1.6591,0,0,0,0,0,0,0,0,0,0,0,0,0,1.6681,1.6681,1.6657,1.6656,1.6656,1.6635,1.6635,1.6634,1.6617,1.6617,1.6617,1.6617,1.6592,1.6592,1.6591,0,0,0,0,0,0,0,0,0,0,0,0,0,1.6666,1.6681,1.6657,1.6645,1.6644,1.6635,1.6634,1.6634,1.6617,1.6617,1.6617,1.6617,1.6593,1.6592,1.6591,1.6591,0,0,1.6589,1.6588,0,0,0,0,0,0,0,0,1.6667,1.6665,1.6647,1.6646,1.6645,1.6629,1.6634,1.662,1.6618,1.6627,1.6617,1.6617,1.6604,1.6603,1.6599,1.659,1.6589,1.6589,1.6588,1.6588,1.6588,0,0,0,0,0,0,0,1.6668,1.6666,1.6648,1.6647,1.6645,1.664,1.6638,1.6631,1.6617,1.6627,1.6625,1.6623,1.6604,1.66,1.6598,1.6588,1.6589,1.6588,1.6587,1.6587,1.6576,1.6577,0,0,0,0,0,0,1.6671,1.6667,1.6649,1.6647,1.6656,1.664,1.6637,1.6634,1.6617,1.6615,1.6623,1.6622,1.6601,1.6599,1.6597,1.6595,1.6588,1.6587,1.6587,1.6576,1.6576,1.6577,0,0,0,0,0,0,1.6672,1.667,1.665,1.6657,1.6654,1.664,1.6636,1.6634,1.663,1.6615,1.6612,1.6622,1.6601,1.6598,1.6592,1.6594,1.6587,1.6586,1.6576,1.6576,1.6577,1.6592,0,0,0,0,0,0,1.6673,1.667,1.6671,1.6657,1.6654,1.6646,1.6636,1.6633,1.6629,1.6627,1.6613,1.661,1.6601,1.6594,1.6592,1.6593,1.6585,1.6576,1.6576,1.6577,1.6592,1.6593,1.6594,0,0,0,0,0,1.6674,1.6676,1.6671,1.6669,1.6654,1.6646,1.6644,1.6633,1.6629,1.6629,1.6619,1.6611,1.6594,1.6593,1.6591,1.6592,1.6576,1.6576,1.6576,1.6591,1.6593,1.6594,0,0,0,0,0,0,1.6689,1.6674,1.6668,1.6666,1.6658,1.6644,1.6643,1.6636,1.6628,1.6627,1.6613,1.661,1.6605,1.6598,1.6597,1.659,1.6584,1.6584,1.6596,1.6597,1.6599,1.6601,1.6585,0,0,0,0,0,1.6693,1.6689,1.6675,1.6674,1.667,1.6657,1.6654,1.6646,1.6636,1.6633,1.6623,1.6613,1.6605,1.6601,1.6593,1.659,1.6586,1.659,1.6591,1.6592,1.6592,1.6589,1.659,1.6578,1.6578,1.6578,0,0,1.6699,1.669,1.6688,1.6677,1.667,1.6665,1.6655,1.665,1.6646,1.6632,1.6626,1.6618,1.6606,1.6601,1.6599,1.6595,1.6595,1.6593,1.6594,1.6593,1.659,1.6591,1.6592,1.6578,1.6578,1.6578,0,0,1.6709,1.6702,1.6701,1.6694,1.6683,1.6674,1.6674,1.666,1.6655,1.6649,1.6637,1.6632,1.6619,1.6611,1.6606,1.6611,1.6603,1.6609,1.6616,1.6613,1.6614,1.6615,1.6617,1.6617,1.6609,1.6609,1.6609,0,1.6719,1.6712,1.6701,1.6697,1.6692,1.6679,1.6677,1.667,1.6657,1.6653,1.6649,1.6633,1.6624,1.6617,1.6618,1.6614,1.6612,1.6611,1.6615,1.6616,1.6616,1.6618,1.6618,1.661,1.661,1.6609,1.6609,0,1.6724,1.6719,1.6719,1.6708,1.6702,1.6699,1.6687,1.6682,1.6675,1.6666,1.6659,1.6648,1.6637,1.6635,1.6627,1.6626,1.6624,1.6618,1.6611,1.6619,1.662,1.662,1.6611,1.6611,1.661,1.661,0,0,1.6744,1.6726,1.6726,1.672,1.6707,1.6703,1.6698,1.6688,1.6685,1.6676,1.6671,1.666,1.6654,1.6648,1.6639,1.6636,1.664,1.663,1.6629,1.6632,1.6638,1.6643,1.6644,1.6635,1.6635,1.6635,1.6639,0,1.6752,1.6745,1.6734,1.673,1.6725,1.6712,1.6708,1.6699,1.669,1.6684,1.6674,1.6666,1.6659,1.6655,1.6652,1.6641,1.6641,1.664,1.6629,1.6629,1.6633,1.6644,1.665,1.6654,1.6639,1.6639,1.6639,0,1.6761,1.6753,1.6749,1.6735,1.6732,1.6729,1.6719,1.6713,1.6702,1.6695,1.6688,1.6678,1.6671,1.6665,1.6655,1.6654,1.6649,1.6643,1.6643,1.6642,1.6635,1.6643,1.6656,1.6656,1.664,1.664,1.664,0,1.6776,1.6764,1.676,1.6755,1.6739,1.6737,1.673,1.6718,1.6713,1.6703,1.6699,1.6689,1.6683,1.6675,1.6662,1.6658,1.6653,1.6646,1.6647,1.6647,1.6647,1.6647,1.6659,1.6643,1.6643,1.6643,1.6643,0,1.6786,1.6784,1.6766,1.6764,1.6761,1.6747,1.6744,1.6736,1.6725,1.672,1.6707,1.6702,1.6685,1.6678,1.6667,1.666,1.6658,1.6652,1.6649,1.6653,1.6654,1.665,1.6649,1.6643,1.6643,1.6643,1.6643,0,1.6803,1.6791,1.6786,1.6771,1.6767,1.6765,1.6751,1.6748,1.6738,1.6731,1.6729,1.6713,1.6704,1.669,1.6676,1.6669,1.6663,1.6659,1.6667,1.6666,1.6668,1.6668,1.6677,1.6677,1.6662,1.6662,1.6662,0,1.681,1.6808,1.6793,1.6789,1.6783,1.6776,1.6771,1.6757,1.6751,1.6737,1.6735,1.6725,1.6716,1.6701,1.6687,1.6676,1.6671,1.6675,1.667,1.6673,1.6671,1.6672,1.6671,1.6677,1.6677,1.6677,1.6677,0,1.6825,1.6819,1.6812,1.6803,1.6796,1.6788,1.6779,1.6776,1.676,1.6754,1.6745,1.6738,1.6723,1.6713,1.67,1.6691,1.6681,1.6679,1.6679,1.6683,1.6688,1.6685,1.6671,1.6679,1.6679,1.6679,1.6679,1.6679,1.6837,1.6835,1.6823,1.6816,1.6807,1.6799,1.6795,1.6784,1.6777,1.6765,1.6756,1.6747,1.6734,1.6715,1.6707,1.6698,1.6694,1.6694,1.6694,1.6694,1.6695,1.6689,1.6696,1.6696,1.6696,1.6696,1.6696,0,1.6851,1.6843,1.6836,1.6824,1.6817,1.6809,1.6798,1.6793,1.6786,1.6775,1.6766,1.6754,1.6744,1.6729,1.6717,1.6713,1.6708,1.671,1.6711,1.6708,1.67,1.6701,1.6714,1.6714,1.6714,1.6714,1.6714,1.6714,1.6857,1.6853,1.6845,1.6835,1.6827,1.6819,1.6813,1.6805,1.6796,1.6784,1.6775,1.6766,1.6753,1.674,1.6729,1.6725,1.6721,1.6724,1.6719,1.6711,1.6709,1.6708,1.6709,1.6724,1.6724,1.6728,1.6728,1.6728]}]]